456  
NZUS43 KILX 240210  
HWRILX  
 
AREA WEATHER ROUNDUP  
NATIONAL WEATHER SERVICE LINCOLN IL  
900 PM CDT SUN JUL 23 2017  
 
NOTE: "FAIR" INDICATES FEW OR NO CLOUDS BELOW 12,000 FEET, WITH  
NO SIGIFICANT WEATHER AND/OR OBSTRUCTIONS TO VISIBILITY.  
 
 
CITY SKY/WX TMP DP RH WIND PRES REMARKS
 
BLOOMINGTON NOT AVBL  
CHAMPAIGN TSTM 78 68 71 NW18G25 29.84R HX 80  
DANVILLE LGT RAIN 69 68 96 E5 29.82R  
DECATUR PTCLDY 74 71 91 SW8 29.83R  
EFFINGHAM CLOUDY 79 75 89 CALM 29.86R HX 82  
FLORA CLEAR 78 73 83 W5 29.86R HX 80  
GALESBURG CLEAR 73 63 72 NW7 29.89R  
JACKSONVILLE CLOUDY 76 68 77 CALM 29.86R  
LACON PTCLDY 74 69 84 CALM 29.84R  
LAWRENCEVILLE CLEAR 77 74 90 CALM 29.85R  
LITCHFIELD PTCLDY 76 74 91 CALM 29.85R  

 
 
 
CITY SKY/WX TMP DP RH WIND PRES REMARKS
 
LINCOLN PTCLDY 81 70 69 CALM 29.85R HX 84  
MACOMB CLEAR 75 64 67 N9 29.88S  
MATTOON CLOUDY 80 77 90 SW6 29.83R HX 87  
MT CARMEL AP CLEAR 76 72 86 SW3 29.85R  
OLNEY-NOBLE AP CLEAR 76 74 93 CALM 29.85S  
PARIS AP PTCLDY 75 74 98 CALM 29.85R  
PEORIA CLEAR 78 65 63 N6 29.85R HX 80  
PONTIAC CLEAR 72 71 97 CALM 29.84S  
RANTOUL CLOUDY 74 70 87 E8 29.85R  
ROBINSON CLEAR 74 73 94 SW5 29.85R  
SPRINGFIELD CLOUDY 76 73 91 NW6 29.85R  
TAYLORVILLE PTCLDY 74 73 96 W5 29.85R  

 
   
..REGIONAL REPORTS
 
 
 
CITY SKY/WX TMP DP RH WIND PRES REMARKS
 
CHICAGO O'HARE PTCLDY 70 64 81 W5 29.82S  
KANKAKEE CLEAR 70 66 88 CALM 29.81S  
MOLINE CLEAR 77 62 59 NW8 29.87R  
MOUNT STERLING CLOUDY 77 68 73 N7 29.87R  
MOUNT VERNON CLEAR 77 72 84 CALM 29.86R  
PITTSFIELD CLOUDY 77 71 81 NW5 29.88R  
QUINCY CLOUDY 80 65 59 N10 29.87R HX 82  
ROCKFORD PTCLDY 75 69 81 NW6 29.86R  

 
 
 
CITY SKY/WX TMP DP RH WIND PRES REMARKS
 
BURLINGTON CLEAR 76 64 66 N9 29.88R  
CEDAR RAPIDS PTCLDY 70 65 84 NW6 29.90R  
DES MOINES PTCLDY 77 60 55 N13 29.92R  
KIRKSVILLE PTCLDY 78 64 61 N6 29.90R HX 80  
OTTUMWA CLEAR 73 59 61 N7 29.91R  
ST LOUIS PTCLDY 88 69 53 SW8 29.86R HX 92  

 
 
 
CITY SKY/WX TMP DP RH WIND PRES REMARKS
 
TERRE HAUTE CLEAR 76 71 85 CALM 29.83R  
EVANSVILLE CLEAR 79 71 76 W3 29.86R HX 82  
INDIANAPOLIS PTCLDY 75 72 90 SW6 29.83R  
LAFAYETTE CLOUDY 77 69 76 NW16G26 29.79F  
MADISON PTCLDY 72 61 68 NW7 29.87R  
MILWAUKEE MOCLDY 70 66 87 NE15G24 29.87R  

 
 
 
 
CLICK HERE TO GO TO PREVIOUS BULLETINS.

The Nexlab IL Page Main Text Page